Henderson, Nevada, United States (89009)
Lat: 36.04N, Lon: 114.98W
Wx Zone: NVZ020
Local Info
Past Weather Observations for Today

NOTE: This archive is for the closest National Weather Service station to Henderson. Information may differ from the station used for current weather conditions.

Click here for Long-term Archive

Time Weather Temperature Dewpoint Humidity Pressure Winds Precip Visibility
21:56
Clear
81°F / 27°C 34°F / 1°C 18% 30.01 in
(1016 mb)
S 10.4 mph
(S 17 kph)
- 10SM
20:56
Clear
84°F / 29°C 36°F / 2°C 18% 30.01 in
(1016 mb)
S 10.4 mph
(S 17 kph)
- 10SM
19:56
Clear
86°F / 30°C 37°F / 3°C 18% 29.98 in
(1015 mb)
SSE 10.4 mph
(SSE 17 kph)
- 10SM
18:56
Clear
88°F / 31°C 39°F / 4°C 18% 29.98 in
(1015 mb)
SE 11.5 mph
(SE 19 kph)
- 10SM
17:56
Clear
90°F / 32°C 39°F / 4°C 17% 29.95 in
(1014 mb)
SE 9.2 mph
(SE 15 kph)
- 10SM
16:56
Clear
93°F / 34°C 41°F / 5°C 16% 29.95 in
(1014 mb)
SE 8.1 mph
(SE 13 kph)
- 10SM
15:56
Clear
93°F / 34°C 43°F / 6°C 17% 29.95 in
(1014 mb)
NNW 6.9 mph
(NNW 11 kph)
- 10SM
14:56
Clear
95°F / 35°C 45°F / 7°C 18% 29.98 in
(1015 mb)
NE 11.5 mph
(NE 19 kph)
- 10SM
13:56
Clear
93°F / 34°C 43°F / 6°C 17% 30.01 in
(1016 mb)
NE 6.9 mph
(NE 11 kph)
- 10SM
12:56
Clear
93°F / 34°C 46°F / 8°C 20% 30.01 in
(1016 mb)
NNE 9.2 mph
(NNE 15 kph)
- 10SM
11:56
Clear
91°F / 33°C 46°F / 8°C 21% 30.04 in
(1017 mb)
Variable 4.6 mph
(Variable 7 kph)
- 10SM
10:56
Clear
88°F / 31°C 50°F / 10°C 27% 30.06 in
(1018 mb)
Calm - 10SM
09:56
Clear
84°F / 29°C 50°F / 10°C 31% 30.09 in
(1019 mb)
Variable 4.6 mph
(Variable 7 kph)
- 10SM
08:56
Clear
82°F / 28°C 52°F / 11°C 35% 30.09 in
(1019 mb)
Variable 3.5 mph
(Variable 6 kph)
- 10SM
07:56
Clear
81°F / 27°C 52°F / 11°C 37% 30.09 in
(1019 mb)
Variable 4.6 mph
(Variable 7 kph)
- 10SM
06:56
Clear
73°F / 23°C 48°F / 9°C 41% 30.06 in
(1018 mb)
SSE 3.5 mph
(SSE 6 kph)
- 10SM
05:56
Clear
68°F / 20°C 46°F / 8°C 46% 30.06 in
(1018 mb)
S 5.8 mph
(S 9 kph)
- 10SM
04:56
Clear
68°F / 20°C 46°F / 8°C 46% 30.04 in
(1017 mb)
SSE 6.9 mph
(SSE 11 kph)
- 10SM
03:56
Clear
72°F / 22°C 45°F / 7°C 38% 30.04 in
(1017 mb)
SSE 3.5 mph
(SSE 6 kph)
- 10SM
02:56
Clear
73°F / 23°C 45°F / 7°C 36% 30.04 in
(1017 mb)
Calm - 10SM
01:56
Clear
73°F / 23°C 45°F / 7°C 36% 30.01 in
(1016 mb)
SSE 5.8 mph
(SSE 9 kph)
- 10SM
00:56
Clear
75°F / 24°C 45°F / 7°C 34% 30.01 in
(1016 mb)
Calm - 10SM
Time Weather Temperature Dewpoint Humidity Pressure Winds Precip Visibility


Weather for websites

WeatherForYou.com, LLC is not responsible for any damages or problems caused by this service. Current weather conditions are obtained from the closest station including government and personal stations which may have varying degrees of accuracy. Weather forecasts are derived from the NOAA NDFD. Like all things, this site belongs to Jesus Christ... He just trusts me to maintain it. If you have any questions or comments email webmaster@weatherforyou.com

Copyright © 2014, WeatherForYou.com LLC. All rights reserved.